Orbital Elements at Epoch 2459000.5 (2020-May-31.0) TDB
Reference: JPL 14 (heliocentric ecliptic J2000)
Element | Value | Uncertainty (1-sigma) | Units |
e | .03232002352829906 | 4.6633e-08 | |
a | 2.669143427501874 | 2.4053e-08 | au |
q | 2.582876649124608 | 1.2547e-07 | au |
i | 7.000472808476281 | 5.3965e-06 | deg |
node | 248.6938190962716 | 4.8066e-05 | deg |
peri | 197.263047131925 | 0.0001096 | deg |
M | 311.3651644927755 | 0.00010004 | deg |
tp | 2459215.679673670571 (2021-Jan-01.17967367) | 0.00044349 | TDB |
period | 1592.781834532956 4.36 | 2.153e-05 5.895e-08 | d yr |
n | .2260196545407997 | 3.0551e-09 | deg/d |
Q | 2.755410205879139 | 2.483e-08 | au |
|
| | Orbit Determination Parameters
Additional Information
|